EW7833 Weather Reports


Display with metric or nautical units.
time (UTC)temp
F
wind
direction
speed
MPH
gust
MPH
rain 1hr
in
rain 24hr
in
rain mn
in
humidity
%
barometer
mb
20260905001544 68 110 0.0 0.0 0.00 0.42 0.42 91 1014.7
20260905000045 68 110 0.0 0.0 0.00 0.42 0.42 91 1014.6
20260904234543 68 125 0.0 1.0 0.00 0.42 0.42 90 1014.5
20260904233042 68 126 0.0 0.0 0.00 0.42 0.42 90 1014.5
20260904231541 68 94 0.0 0.0 0.00 0.42 0.42 90 1014.3
20260904230058 68 117 0.0 0.0 0.00 0.42 0.42 89 1014.3
20260904224544 68 116 0.0 0.0 0.00 0.42 0.42 89 1014.2
20260904223101 68 116 0.0 0.0 0.00 0.42 0.42 88 1014.1
20260904221540 68 116 0.0 0.0 0.00 0.42 0.42 87 1014.1
20260904220044 69 117 0.0 0.0 0.00 0.42 0.42 87 1014.1
20260904214546 69 116 0.0 1.0 0.00 0.42 0.42 86 1014.1
20260904213041 69 118 0.0 0.0 0.00 0.42 0.42 87 1014.1
20260904211539 69 117 0.0 1.0 0.00 0.42 0.42 88 1014.1
20260904210037 69 113 0.0 1.0 0.00 0.42 0.42 87 1014.1
20260904204536 69 113 0.0 0.0 0.00 0.42 0.42 88 1014.0
20260904203037 69 113 0.0 1.0 0.00 0.42 0.42 87 1014.1
20260904201542 69 113 0.0 2.0 0.00 0.42 0.42 86 1014.2
20260904200044 69 105 0.0 1.0 0.00 0.42 0.42 87 1014.1
20260904194535 69 105 0.0 2.0 0.00 0.42 0.42 86 1014.1
20260904193039 69 108 0.0 5.0 0.00 0.42 0.42 84 1014.1
20260904191535 69 107 0.0 1.0 0.00 0.42 0.42 85 1014.1
20260904190033 69 110 0.0 2.0 0.00 0.42 0.42 85 1014.0
20260904184532 69 105 0.0 2.0 0.00 0.42 0.42 84 1014.0
20260904183032 69 115 0.0 1.0 0.00 0.42 0.42 86 1014.1
20260904181532 68 120 0.0 2.0 0.00 0.42 0.42 86 1014.1
20260904180031 68 122 0.0 1.0 0.00 0.42 0.42 87 1014.2
20260904174530 69 103 0.0 2.0 0.00 0.42 0.42 87 1014.4
20260904173030 68 103 0.0 0.0 0.00 0.42 0.42 86 1014.3
20260904171552 69 101 0.0 2.0 0.00 0.42 0.42 86 1014.4
20260904170028 69 120 0.0 1.0 0.00 0.42 0.42 86 1014.4
20260904164528 69 125 0.0 1.0 0.00 0.42 0.42 87 1014.4
20260904163043 69 113 0.0 2.0 0.00 0.42 0.42 88 1014.4
20260904161523 68 86 0.0 4.0 0.00 0.42 0.42 89 1014.1
20260904160023 68 110 0.0 3.0 0.00 0.42 0.42 90 1014.0
20260904154522 67 105 0.0 0.0 0.00 0.42 0.42 91 1014.5
20260904153029 67 77 0.0 1.0 0.00 0.42 0.42 91 1014.7
20260904151533 66 112 0.0 0.0 0.00 0.42 0.42 92 1015.0
20260904150021 66 116 0.0 1.0 0.00 0.42 0.42 92 1015.0
20260904144516 66 106 0.0 1.0 0.00 0.42 0.42 92 1015.0
20260904143013 65 120 0.0 1.0 0.00 0.42 0.42 91 1015.2
20260904141514 65 124 0.0 0.0 0.00 0.42 0.42 91 1015.0
20260904140009 65 124 0.0 0.0 0.00 0.42 0.42 90 1014.9
20260904134508 64 124 0.0 0.0 0.00 0.42 0.42 90 1014.5
20260904133009 64 124 0.0 2.0 0.00 0.42 0.42 89 1014.5
20260904131506 64 126 0.0 0.0 0.00 0.42 0.42 87 1014.6
20260904130002 63 126 0.0 0.0 0.00 0.42 0.42 88 1014.3
20260904124502 63 126 0.0 0.0 0.00 0.42 0.42 88 1014.5
20260904123101 62 126 0.0 0.0 0.00 0.42 0.42 88 1014.5
20260904121600 62 126 0.0 0.0 0.00 0.42 0.42 88 1014.4
20260904120106 62 126 0.0 0.0 0.02 0.42 0.42 89 1014.4
20260904114600 61 126 0.0 0.0 0.12 0.42 0.42 89 1014.3
20260904113058 61 126 0.0 0.0 0.42 0.42 0.42 89 1013.7
20260904111557 61 126 0.0 0.0 0.42 0.42 0.42 90 1014.2
20260904110056 61 126 0.0 1.0 0.40 0.40 0.40 90 1014.8
20260904104555 62 129 0.0 1.0 0.30 0.30 0.30 90 1015.4
20260904103053 62 223 0.0 3.0 0.00 0.00 0.00 87 1016.3
20260904101550 61 121 0.0 0.0 0.00 0.00 0.00 89 1014.1
20260904100048 60 121 0.0 0.0 0.00 0.00 0.00 89 1014.0
20260904094547 60 121 0.0 0.0 0.00 0.00 0.00 90 1014.0
20260904093047 60 121 0.0 0.0 0.00 0.00 0.00 89 1013.9
20260904091545 60 121 0.0 0.0 0.00 0.00 0.00 89 1014.1
20260904090041 60 121 0.0 0.0 0.00 0.00 0.00 90 1013.7
20260904084543 59 121 0.0 0.0 0.00 0.00 0.00 90 1013.6
20260904083037 59 121 0.0 0.0 0.00 0.00 0.00 90 1013.7
20260904081533 60 121 0.0 0.0 0.00 0.00 0.00 90 1013.6
20260904080041 60 121 0.0 0.0 0.00 0.00 0.00 89 1013.9
20260904074528 59 121 0.0 0.0 0.00 0.00 0.00 90 1013.3
20260904073028 59 121 0.0 0.0 0.00 0.00 0.00 90 1013.6
20260904071526 59 121 0.0 0.0 0.00 0.00 0.00 90 1013.9
20260904070038 59 121 0.0 0.0 0.00 0.00 0.00 90 1013.8
20260904064522 60 121 0.0 0.0 0.00 0.00 0.00 90 1013.5
20260904063018 59 121 0.0 0.0 0.00 0.00 0.00 89 1013.8
20260904061516 59 121 0.0 0.0 0.00 0.00 0.00 90 1014.1
20260904060016 59 121 0.0 0.0 0.00 0.00 0.00 90 1014.6
20260904054527 59 121 0.0 0.0 0.00 0.00 0.00 90 1014.7
20260904053018 58 121 0.0 0.0 0.00 0.00 0.00 91 1014.4
20260904051511 58 121 0.0 0.0 0.00 0.00 0.00 92 1014.8
20260904050010 58 121 0.0 0.0 0.00 0.00 0.00 92 1014.7
20260904044512 59 121 0.0 0.0 0.00 0.00 0.00 92 1014.7
20260904043006 59 121 0.0 0.0 0.00 0.00 0.00 92 1014.7
20260904041505 59 121 0.0 0.0 0.00 0.00 0.00 92 1014.7
20260904040002 59 121 0.0 0.0 0.00 0.00 0.00 92 1014.8
20260904034502 60 121 0.0 0.0 0.00 0.00 0.00 92 1014.5
20260904033000 60 121 0.0 0.0 0.00 0.00 0.00 92 1014.8
20260904031602 60 121 0.0 0.0 0.00 0.00 0.00 92 1014.4
20260904024600 61 121 0.0 0.0 0.00 0.00 0.00 92 1014.2
20260904023059 61 121 0.0 0.0 0.00 0.00 0.00 92 1014.2
20260904021613 62 121 0.0 0.0 0.00 0.00 0.00 92 1014.3
20260904020059 63 121 0.0 0.0 0.00 0.00 0.00 91 1014.4
20260904014606 63 121 0.0 0.0 0.00 0.00 0.00 91 1014.1
20260904013121 64 121 0.0 0.0 0.00 0.00 0.00 90 1014.0
20260904011637 64 121 0.0 0.0 0.00 0.00 0.00 88 1013.8
20260904010056 64 121 0.0 0.0 0.00 0.00 0.00 85 1013.6
20260904004556 65 121 0.0 0.0 0.00 0.00 0.00 84 1013.3
20260904003056 66 121 0.0 0.0 0.00 0.00 0.00 84 1013.1